KF4CQ Weather Reports


Display with metric or nautical units.
time (UTC)temp
F
wind
direction
speed
MPH
gust
MPH
rain 1hr
in
rain 24hr
in
rain mn
in
humidity
%
barometer
mb
20260510182450 92 278 5.0 5.0 0.00 0.00 0.00 54 1016.1
20260510181945 93 258 6.0 8.0 0.00 0.00 0.00 53 1016.2
20260510181444 93 252 4.0 6.0 0.00 0.00 0.00 54 1016.4
20260510180939 93 14 3.0 3.0 0.00 0.00 0.00 55 1016.2
20260510180437 92 26 3.0 5.0 0.00 0.00 0.00 58 1016.1
20260510175934 92 90 4.0 5.0 0.00 0.00 0.00 58 1016.4
20260510175430 93 146 5.0 8.0 0.00 0.00 0.00 56 1016.4
20260510174925 93 266 3.0 5.0 0.00 0.00 0.00 56 1016.5
20260510174424 92 168 4.0 6.0 0.00 0.00 0.00 56 1016.8
20260510173920 91 192 5.0 6.0 0.00 0.00 0.00 58 1016.8
20260510173415 91 256 5.0 6.0 0.00 0.00 0.00 59 1016.7
20260510172912 91 143 3.0 3.0 0.00 0.00 0.00 61 1016.7
20260510172409 91 197 7.0 9.0 0.00 0.00 0.00 59 1016.8
20260510171904 92 220 5.0 6.0 0.00 0.00 0.00 60 1017.0
20260510171402 91 68 4.0 6.0 0.00 0.00 0.00 60 1017.0
20260510170859 90 212 5.0 6.0 0.00 0.00 0.00 60 1017.1
20260510170355 93 12 2.0 3.0 0.00 0.00 0.00 58 1016.9
20260510165850 91 256 3.0 3.0 0.00 0.00 0.00 63 1017.2
20260510165347 92 202 4.0 8.0 0.00 0.00 0.00 63 1017.2
20260510164844 92 82 1.0 2.0 0.00 0.00 0.00 61 1017.3
20260510164342 90 119 1.0 3.0 0.00 0.00 0.00 65 1017.5
20260510163841 89 95 4.0 5.0 0.00 0.00 0.00 66 1017.7
20260510163338 89 314 3.0 3.0 0.00 0.00 0.00 66 1017.8
20260510162832 89 93 1.0 2.0 0.00 0.00 0.00 67 1017.6
20260510162330 89 182 4.0 5.0 0.00 0.00 0.00 65 1017.9
20260510161825 90 115 2.0 3.0 0.00 0.00 0.00 66 1017.9
20260510161321 89 24 2.0 3.0 0.00 0.00 0.00 66 1017.9
20260510160818 89 250 4.0 6.0 0.00 0.00 0.00 68 1017.8
20260510160315 90 359 3.0 6.0 0.00 0.00 0.00 65 1018.0
20260510155809 90 182 3.0 5.0 0.00 0.00 0.00 68 1017.8
20260510155306 89 229 5.0 8.0 0.00 0.00 0.00 68 1018.0
20260510154802 88 234 3.0 5.0 0.00 0.00 0.00 70 1017.8
20260510154258 87 190 3.0 5.0 0.00 0.00 0.00 72 1017.8
20260510153752 87 57 1.0 1.0 0.00 0.00 0.00 71 1018.0
20260510153248 88 198 5.0 7.0 0.00 0.00 0.00 70 1017.8
20260510152745 88 210 3.0 5.0 0.00 0.00 0.00 70 1017.9
20260510152242 87 154 3.0 3.0 0.00 0.00 0.00 71 1017.8
20260510151738 87 190 4.0 7.0 0.00 0.00 0.00 72 1017.9
20260510151237 86 119 3.0 3.0 0.00 0.00 0.00 73 1017.9
20260510150732 88 0 2.0 3.0 0.00 0.00 0.00 70 1017.8
20260510150228 88 135 3.0 3.0 0.00 0.00 0.00 72 1017.7
20260510145724 86 242 3.0 6.0 0.00 0.00 0.00 73 1017.9
20260510145221 86 203 5.0 7.0 0.00 0.00 0.00 73 1017.7
20260510144717 86 212 3.0 3.0 0.00 0.00 0.00 73 1017.8
20260510144214 86 162 6.0 8.0 0.00 0.00 0.00 74 1017.9
20260510143708 86 8 3.0 5.0 0.00 0.00 0.00 74 1017.7
20260510143205 85 131 3.0 5.0 0.00 0.00 0.00 76 1017.6
20260510142701 86 266 4.0 5.0 0.00 0.00 0.00 74 1017.6
20260510142158 84 129 3.0 3.0 0.00 0.00 0.00 76 1017.5
20260510141655 84 157 3.0 6.0 0.00 0.00 0.00 77 1017.4
20260510141154 84 186 5.0 8.0 0.00 0.00 0.00 77 1017.6
20260510140650 83 90 2.0 3.0 0.00 0.00 0.00 79 1017.5
20260510140149 84 199 5.0 9.0 0.00 0.00 0.00 78 1017.6
20260510135644 83 114 3.0 5.0 0.00 0.00 0.00 78 1017.7
20260510135141 84 193 4.0 5.0 0.00 0.00 0.00 78 1017.4
20260510134638 82 218 5.0 6.0 0.00 0.00 0.00 81 1017.2
20260510134135 83 185 5.0 6.0 0.00 0.00 0.00 80 1017.5
20260510133631 82 120 2.0 2.0 0.00 0.00 0.00 81 1017.4
20260510133126 82 109 4.0 5.0 0.00 0.00 0.00 82 1017.4
20260510132624 81 114 3.0 5.0 0.00 0.00 0.00 84 1017.4
20260510132121 81 89 1.0 1.0 0.00 0.00 0.00 84 1017.4
20260510131618 79 91 2.0 2.0 0.00 0.00 0.00 86 1017.4
20260510131115 79 132 3.0 5.0 0.00 0.00 0.00 87 1017.3
20260510130612 79 71 0.0 1.0 0.00 0.00 0.00 87 1017.4
20260510130110 79 118 3.0 3.0 0.00 0.00 0.00 88 1017.5
20260510125606 78 64 1.0 1.0 0.00 0.00 0.00 88 1017.3
20260510125102 78 120 2.0 3.0 0.00 0.00 0.00 90 1017.2
20260510124558 77 72 1.0 2.0 0.00 0.00 0.00 90 1017.2
20260510124056 77 98 2.0 2.0 0.00 0.00 0.00 91 1017.3
20260510123551 77 75 1.0 2.0 0.00 0.00 0.00 92 1017.2
20260510123047 76 104 1.0 2.0 0.00 0.00 0.00 93 1017.2
20260510122543 76 77 1.0 1.0 0.00 0.00 0.00 93 1017.0
20260510122039 75 37 1.0 1.0 0.00 0.00 0.00 94 1016.9
20260510121537 75 123 3.0 3.0 0.00 0.00 0.00 94 1017.1
20260510121034 75 102 1.0 1.0 0.00 0.00 0.00 95 1017.0
20260510120531 75 82 1.0 1.0 0.00 0.00 0.00 95 1016.9
20260510120027 75 78 0.0 0.0 0.00 0.00 0.00 95 1016.7
20260510115524 75 68 0.0 0.0 0.00 0.00 0.00 96 1016.8
20260510115020 74 77 0.0 0.0 0.00 0.00 0.00 97 1016.7
20260510114516 73 75 0.0 0.0 0.00 0.00 0.00 98 1016.5
20260510114013 73 85 0.0 0.0 0.00 0.00 0.00 98 1016.4
20260510113508 73 83 0.0 0.0 0.00 0.00 0.00 98 1016.3
20260510113006 73 83 1.0 1.0 0.00 0.00 0.00 99 1016.2
20260510112502 73 75 0.0 0.0 0.00 0.00 0.00 99 1016.1
20260510111959 73 79 0.0 0.0 0.00 0.00 0.00 99 1016.0
20260510111455 73 74 0.0 0.0 0.00 0.00 0.00 99 1015.8
20260510110951 72 80 0.0 0.0 0.00 0.00 0.00 99 1015.7
20260510110448 72 70 0.0 0.0 0.00 0.00 0.00 99 1015.6
20260510105944 72 70 0.0 0.0 0.00 0.00 0.00 99 1015.5
20260510105439 72 73 0.0 0.0 0.00 0.00 0.00 99 1015.6
20260510104934 72 73 0.0 0.0 0.00 0.00 0.00 99 1015.5
20260510104431 72 73 0.0 0.0 0.00 0.00 0.00 99 1015.3
20260510103928 72 71 0.0 0.0 0.00 0.00 0.00 99 1015.5
20260510103426 72 69 0.0 0.0 0.00 0.00 0.00 99 1015.5
20260510102920 72 100 0.0 1.0 0.00 0.00 0.00 99 1015.5
20260510102416 72 77 0.0 0.0 0.00 0.00 0.00 99 1015.1
20260510101914 73 78 0.0 0.0 0.00 0.00 0.00 99 1015.0
20260510101412 73 78 0.0 0.0 0.00 0.00 0.00 98 1015.1
20260510100908 73 75 0.0 0.0 0.00 0.00 0.00 98 1014.9
20260510100400 73 77 0.0 0.0 0.00 0.00 0.00 98 1014.8
20260510095855 73 83 0.0 0.0 0.00 0.00 0.00 98 1014.8
20260510095345 73 77 0.0 0.0 0.00 0.00 0.00 98 1014.8
20260510094845 73 76 0.0 0.0 0.00 0.00 0.00 98 1014.7
20260510094340 73 78 0.0 0.0 0.00 0.00 0.00 98 1014.8
20260510093837 73 71 0.0 0.0 0.00 0.00 0.00 98 1014.8
20260510093332 73 80 0.0 0.0 0.00 0.00 0.00 98 1014.7
20260510092829 73 72 0.0 0.0 0.00 0.00 0.00 98 1014.7
20260510092325 73 116 1.0 1.0 0.00 0.00 0.00 98 1014.7
20260510091821 74 100 1.0 1.0 0.00 0.00 0.00 98 1014.6
20260510091318 74 113 3.0 5.0 0.00 0.00 0.00 98 1014.6
20260510090814 74 190 1.0 2.0 0.00 0.00 0.00 98 1014.4
20260510090311 74 87 1.0 1.0 0.00 0.00 0.00 98 1014.7
20260510085807 74 84 1.0 1.0 0.00 0.00 0.00 98 1014.7
20260510085301 74 74 1.0 1.0 0.00 0.00 0.00 98 1014.4
20260510084757 74 90 1.0 2.0 0.00 0.00 0.00 98 1014.4
20260510084254 74 73 0.0 1.0 0.00 0.00 0.00 98 1014.3
20260510083751 74 69 0.0 1.0 0.00 0.00 0.00 98 1014.0
20260510083248 74 65 2.0 3.0 0.00 0.00 0.00 98 1014.1
20260510082744 74 72 0.0 0.0 0.00 0.00 0.00 98 1014.2
20260510082240 74 190 3.0 3.0 0.00 0.00 0.00 98 1014.4
20260510081739 74 69 0.0 0.0 0.00 0.00 0.00 98 1014.1
20260510081236 74 89 1.0 1.0 0.00 0.00 0.00 98 1014.2
20260510080731 74 114 3.0 3.0 0.00 0.00 0.00 98 1014.2
20260510080227 74 74 1.0 1.0 0.00 0.00 0.00 98 1014.3
20260510075724 74 112 2.0 2.0 0.00 0.00 0.00 98 1014.3
20260510075221 74 75 1.0 3.0 0.00 0.00 0.00 98 1014.2
20260510074719 73 82 0.0 0.0 0.00 0.00 0.00 98 1014.3
20260510074215 73 80 0.0 1.0 0.00 0.00 0.00 98 1014.2
20260510073711 73 83 3.0 3.0 0.00 0.00 0.00 98 1014.6
20260510073207 73 80 1.0 1.0 0.00 0.00 0.00 98 1014.4
20260510072703 73 85 0.0 2.0 0.00 0.00 0.00 98 1014.5
20260510072200 73 76 0.0 0.0 0.00 0.00 0.00 98 1014.5
20260510071656 73 89 0.0 0.0 0.00 0.00 0.00 98 1014.6
20260510071153 73 70 1.0 1.0 0.00 0.00 0.00 99 1014.6
20260510070651 73 84 0.0 0.0 0.00 0.00 0.00 99 1014.5
20260510070148 73 74 0.0 0.0 0.00 0.00 0.00 99 1014.8
20260510065643 73 75 1.0 1.0 0.00 0.00 0.00 99 1014.7
20260510065139 73 86 1.0 1.0 0.00 0.00 0.00 99 1014.7
20260510064636 73 80 1.0 2.0 0.00 0.00 0.00 99 1014.6
20260510064133 73 72 0.0 0.0 0.00 0.00 0.00 99 1014.7
20260510063630 73 72 0.0 0.0 0.00 0.00 0.00 99 1015.0
20260510063127 73 73 0.0 0.0 0.00 0.00 0.00 99 1015.1
20260510062623 73 85 2.0 2.0 0.00 0.00 0.00 99 1015.3
20260510062119 73 91 0.0 0.0 0.00 0.00 0.00 99 1015.3
20260510061615 73 78 0.0 0.0 0.00 0.00 0.00 99 1015.4
20260510061112 73 69 0.0 0.0 0.00 0.00 0.00 99 1015.4
20260510060608 73 65 0.0 0.0 0.00 0.00 0.00 99 1015.4
20260510060105 73 60 0.0 0.0 0.00 0.00 0.00 99 1015.2
20260510055601 73 71 0.0 0.0 0.00 0.00 0.00 99 1015.4
20260510055059 73 68 0.0 0.0 0.00 0.00 0.00 98 1015.6
20260510054555 73 91 0.0 1.0 0.00 0.00 0.00 98 1015.5
20260510054050 73 69 0.0 0.0 0.00 0.00 0.00 98 1015.8
20260510053549 73 67 0.0 0.0 0.00 0.00 0.00 98 1015.7
20260510053047 73 67 0.0 0.0 0.00 0.00 0.00 98 1015.8
20260510052543 73 67 0.0 0.0 0.00 0.00 0.00 97 1015.6
20260510052039 73 70 0.0 0.0 0.00 0.00 0.00 97 1015.5
20260510051535 73 70 0.0 0.0 0.00 0.00 0.00 97 1015.9
20260510051031 73 73 0.0 0.0 0.00 0.00 0.00 97 1016.0
20260510050529 74 76 0.0 0.0 0.00 0.00 0.00 96 1016.2
20260510050026 74 71 0.0 0.0 0.00 0.00 0.00 96 1016.0
20260510045523 74 70 0.0 0.0 0.00 0.00 0.00 96 1016.0
20260510045019 74 76 0.0 0.0 0.00 0.00 0.00 95 1016.1
20260510044516 74 90 0.0 0.0 0.00 0.00 0.00 95 1016.3
20260510044013 74 73 0.0 0.0 0.00 0.00 0.00 94 1016.2
20260510043508 74 76 0.0 0.0 0.00 0.00 0.00 93 1016.1
20260510043004 74 67 0.0 0.0 0.00 0.00 0.00 93 1016.3
20260510042458 74 67 0.0 0.0 0.00 0.00 0.00 93 1016.4
20260510041953 74 68 0.0 0.0 0.00 0.00 0.00 93 1016.2
20260510041450 73 74 0.0 0.0 0.00 0.00 0.00 92 1016.3
20260510040948 73 73 0.0 0.0 0.00 0.00 0.00 92 1016.3
20260510040444 73 72 0.0 0.0 0.00 0.00 0.00 92 1016.4
20260510035940 73 73 0.0 0.0 0.00 0.00 0.00 92 1016.3
20260510035437 73 65 0.0 0.0 0.00 0.00 0.00 91 1016.4
20260510034937 73 64 0.0 0.0 0.00 0.00 0.00 92 1016.3
20260510034436 73 68 0.0 0.0 0.00 0.00 0.00 93 1016.5
20260510033932 73 74 0.0 0.0 0.00 0.00 0.00 93 1016.5
20260510033428 73 70 0.0 0.0 0.00 0.00 0.00 93 1016.3
20260510032925 73 70 0.0 0.0 0.00 0.00 0.00 92 1016.5
20260510032422 73 70 0.0 0.0 0.00 0.00 0.00 92 1016.2
20260510031917 73 74 0.0 0.0 0.00 0.00 0.00 92 1016.0
20260510031412 73 74 0.0 0.0 0.00 0.00 0.00 92 1016.0
20260510030907 73 74 0.0 0.0 0.00 0.00 0.00 92 1016.3
20260510030403 73 74 0.0 0.0 0.00 0.00 0.00 92 1016.4
20260510025901 73 74 0.0 0.0 0.00 0.00 0.00 92 1016.2
20260510025359 73 74 0.0 0.0 0.00 0.00 0.00 91 1016.2
20260510024856 73 74 0.0 0.0 0.00 0.00 0.00 91 1016.0
20260510024352 73 74 0.0 0.0 0.00 0.00 0.00 91 1015.9
20260510023848 73 74 0.0 0.0 0.00 0.00 0.00 90 1016.0
20260510023344 73 74 0.0 0.0 0.00 0.00 0.00 90 1015.8
20260510022842 73 75 0.0 0.0 0.00 0.00 0.00 90 1015.8
20260510022341 73 75 0.0 0.0 0.00 0.00 0.00 90 1015.9
20260510021840 73 75 0.0 0.0 0.00 0.00 0.00 90 1015.9
20260510021339 73 75 0.0 0.0 0.00 0.00 0.00 89 1015.7
20260510020835 74 72 0.0 0.0 0.00 0.00 0.00 89 1015.8
20260510020335 74 71 0.0 0.0 0.00 0.00 0.00 88 1015.5
20260510015831 74 71 0.0 0.0 0.00 0.00 0.00 88 1015.8
20260510015327 75 71 0.0 0.0 0.00 0.00 0.00 88 1015.8
20260510014822 75 71 0.0 0.0 0.00 0.00 0.00 87 1015.7
20260510014320 75 69 0.0 0.0 0.00 0.00 0.00 87 1015.7
20260510013815 75 69 0.0 0.0 0.00 0.00 0.00 87 1015.8
20260510013312 75 75 0.0 0.0 0.00 0.00 0.00 86 1015.5
20260510012806 75 63 0.0 1.0 0.00 0.00 0.00 86 1015.4
20260510012300 75 62 1.0 2.0 0.00 0.00 0.00 86 1015.5
20260510011755 76 61 0.0 0.0 0.00 0.00 0.00 86 1015.5
20260510011251 76 61 1.0 2.0 0.00 0.00 0.00 86 1015.5
20260510010748 76 48 2.0 2.0 0.00 0.00 0.00 85 1015.2
20260510010244 76 58 1.0 1.0 0.00 0.00 0.00 85 1015.2
20260510005742 76 61 0.0 0.0 0.00 0.00 0.00 85 1015.4
20260510005238 76 60 1.0 1.0 0.00 0.00 0.00 85 1015.1
20260510004736 76 58 0.0 0.0 0.00 0.00 0.00 85 1015.1
20260510004233 76 68 3.0 5.0 0.00 0.00 0.00 85 1014.9
20260510003731 76 54 1.0 1.0 0.00 0.00 0.00 85 1014.9
20260510003227 76 58 0.0 1.0 0.00 0.00 0.00 86 1014.7
20260510002725 76 59 0.0 1.0 0.00 0.00 0.00 85 1014.9
20260510002223 76 36 1.0 2.0 0.00 0.00 0.00 85 1014.7
20260510001720 76 50 1.0 2.0 0.00 0.00 0.00 84 1014.7
20260510001219 77 53 2.0 3.0 0.00 0.00 0.00 84 1014.6
20260510000714 77 59 1.0 1.0 0.00 0.00 0.00 84 1014.7
20260510000212 77 36 1.0 2.0 0.00 0.00 0.00 85 1014.6
20260509235708 77 29 6.0 8.0 0.00 0.00 0.00 85 1014.6
20260509235204 78 62 0.0 1.0 0.00 0.00 0.00 86 1014.4
20260509234701 78 51 1.0 2.0 0.00 0.00 0.00 87 1014.4
20260509234158 78 57 0.0 0.0 0.00 0.00 0.00 87 1014.0
20260509233656 79 61 2.0 2.0 0.00 0.00 0.00 88 1014.2
20260509233153 79 23 5.0 6.0 0.00 0.00 0.00 88 1013.9
20260509232649 79 29 6.0 13.0 0.00 0.00 0.00 88 1014.0
20260509232146 80 6 4.0 6.0 0.00 0.00 0.00 87 1014.0
20260509231643 80 24 6.0 8.0 0.00 0.00 0.00 86 1014.2
20260509231140 81 30 5.0 7.0 0.00 0.00 0.00 83 1013.9
20260509230637 81 41 4.0 7.0 0.00 0.00 0.00 82 1013.7
20260509230134 81 58 0.0 1.0 0.00 0.00 0.00 82 1013.8
20260509225630 82 43 3.0 3.0 0.00 0.00 0.00 81 1013.8
20260509225125 82 47 1.0 1.0 0.00 0.00 0.00 79 1013.6
20260509224621 83 45 1.0 2.0 0.00 0.00 0.00 76 1013.5
20260509224118 83 57 1.0 2.0 0.00 0.00 0.00 74 1013.5
20260509223615 83 33 4.0 7.0 0.00 0.00 0.00 74 1013.6
20260509223113 83 50 2.0 3.0 0.00 0.00 0.00 74 1013.3
20260509222608 84 64 1.0 1.0 0.00 0.00 0.00 73 1013.3
20260509222105 84 52 2.0 2.0 0.00 0.00 0.00 74 1013.3
20260509221600 84 54 2.0 3.0 0.00 0.00 0.00 73 1013.3
20260509221056 85 54 1.0 2.0 0.00 0.00 0.00 72 1013.1
20260509220552 86 45 5.0 7.0 0.00 0.00 0.00 70 1013.3
20260509220049 87 61 0.0 1.0 0.00 0.00 0.00 66 1013.0
20260509215544 88 60 0.0 1.0 0.00 0.00 0.00 61 1013.0
20260509215042 88 62 1.0 1.0 0.00 0.00 0.00 60 1013.0
20260509214539 89 199 2.0 5.0 0.00 0.00 0.00 60 1012.9
20260509214036 89 45 2.0 3.0 0.00 0.00 0.00 59 1012.7
20260509213532 89 59 1.0 2.0 0.00 0.00 0.00 59 1012.7
20260509213029 90 64 1.0 1.0 0.00 0.00 0.00 57 1012.7
20260509212526 90 39 2.0 2.0 0.00 0.00 0.00 57 1012.4
20260509212023 90 39 3.0 3.0 0.00 0.00 0.00 57 1012.6
20260509211518 90 264 4.0 5.0 0.00 0.00 0.00 58 1012.6
20260509211016 90 306 4.0 5.0 0.00 0.00 0.00 58 1012.5
20260509210512 90 28 1.0 1.0 0.00 0.00 0.00 58 1012.6
20260509210009 89 33 2.0 2.0 0.00 0.00 0.00 60 1012.6
20260509205503 89 194 5.0 6.0 0.00 0.00 0.00 60 1012.6
20260509204958 89 23 2.0 2.0 0.00 0.00 0.00 59 1012.7
20260509204455 89 56 1.0 2.0 0.00 0.00 0.00 60 1012.6
20260509203951 89 251 4.0 5.0 0.00 0.00 0.00 60 1012.5
20260509203447 88 288 4.0 5.0 0.00 0.00 0.00 62 1012.7
20260509202945 89 357 2.0 3.0 0.00 0.00 0.00 61 1012.7
20260509202441 89 3 1.0 2.0 0.00 0.00 0.00 63 1012.5
20260509201936 87 58 0.0 1.0 0.00 0.00 0.00 65 1012.6
20260509201431 87 34 2.0 2.0 0.00 0.00 0.00 65 1012.7
20260509200929 86 18 2.0 2.0 0.00 0.00 0.00 65 1012.8
20260509200429 87 89 1.0 2.0 0.00 0.00 0.00 65 1012.8
20260509195926 86 75 1.0 1.0 0.00 0.00 0.00 66 1012.8
20260509195422 85 53 2.0 2.0 0.00 0.00 0.00 66 1012.8
20260509194921 85 62 1.0 1.0 0.00 0.00 0.00 68 1012.9
20260509194417 85 117 3.0 3.0 0.00 0.00 0.00 67 1012.9
20260509193914 85 42 2.0 2.0 0.00 0.00 0.00 67 1012.7
20260509193413 85 145 2.0 2.0 0.00 0.00 0.00 68 1012.9
20260509192910 85 311 3.0 3.0 0.00 0.00 0.00 69 1012.9
20260509192406 87 295 5.0 7.0 0.00 0.00 0.00 65 1013.1
20260509191901 88 136 4.0 7.0 0.00 0.00 0.00 61 1012.8
20260509191357 88 258 3.0 5.0 0.00 0.00 0.00 63 1013.1
20260509190854 87 343 2.0 3.0 0.00 0.00 0.00 64 1013.0
20260509190351 87 241 5.0 7.0 0.00 0.00 0.00 65 1013.1
20260509185848 87 244 3.0 3.0 0.00 0.00 0.00 66 1013.2
20260509185344 87 35 2.0 2.0 0.00 0.00 0.00 68 1013.2
20260509184842 86 86 3.0 3.0 0.00 0.00 0.00 68 1013.1
20260509184339 88 194 4.0 5.0 0.00 0.00 0.00 65 1013.2
20260509183835 90 165 4.0 5.0 0.00 0.00 0.00 55 1013.2
20260509183331 90 336 3.0 3.0 0.00 0.00 0.00 56 1013.2
20260509182827 90 252 3.0 5.0 0.00 0.00 0.00 56 1013.3